Location: *
(43.9905°S, 176.4941°W)
Time: 05:41:52
(UTC+00:00)

Cosmos 2084 - Pass Details

Date: 08 December 2019
Orbit: 562 x 621 km, 62.8° (Epoch: 23 January)

Event Time Altitude Azimuth Distance (km) Brightness Sun altitude
Rises 10:17:10 0° 217° (SW) 2,855 8.3 -20.8°
Reaches altitude 10° 10:19:26 10° 214° (SW) 1,957 7.2 -20.9°
Maximum altitude 10:23:51 70° 130° (SE) 651 3.6 -21.2°
Enters shadow 10:24:51 51° 66° (ENE) 774 3.7 -21.2°
